EDT,Max TemperatureF,Mean TemperatureF,Min TemperatureF,Max Dew PointF,MeanDew PointF,Min DewpointF,Max Humidity, Mean Humidity, Min Humidity, Max Sea Level PressureIn, Mean Sea Level PressureIn, Min Sea Level PressureIn, Max VisibilityMiles, Mean VisibilityMiles, Min VisibilityMiles, Max Wind SpeedMPH, Mean Wind SpeedMPH, Max Gust SpeedMPH,PrecipitationIn, CloudCover, Events, WindDirDegrees
2012-8-1,82,78,73,73,72,70,94,84,66,29.95,29.91,29.87,10,8,2,8,2,,0.66,4,Rain-Thunderstorm,195
2012-8-2,91,80,69,73,69,61,94,71,43,30.00,29.93,29.89,10,9,2,12,3,20,0.00,1,Thunderstorm,183
2012-8-3,89,78,68,72,69,64,94,74,49,30.09,30.03,29.97,10,10,4,12,3,16,0.06,1,Rain-Thunderstorm,175
2012-8-4,87,78,69,73,71,68,94,76,55,30.21,30.15,30.07,10,10,10,14,3,18,0.00,1,,129
2012-8-5,87,79,71,73,72,68,94,78,52,30.22,30.19,30.13,10,10,10,16,6,20,0.00,3,Rain-Thunderstorm,139
2012-8-6,87,79,71,73,71,68,94,80,55,30.17,30.11,30.05,10,10,4,12,1,,0.21,2,Rain-Thunderstorm,196
2012-8-7,80,76,71,75,73,70,94,88,79,30.07,30.04,30.01,10,9,2,7,1,25,0.44,3,Rain-Thunderstorm,180
2012-8-8,82,78,73,72,71,70,94,86,66,30.06,30.01,29.98,10,10,4,9,2,,0.10,3,Rain-Thunderstorm,203
2012-8-9,87,78,69,73,70,68,94,77,52,30.02,29.97,29.90,10,10,3,22,3,26,0.20,1,Rain-Thunderstorm,177
2012-8-10,87,79,71,77,71,68,100,84,58,29.96,29.92,29.89,10,10,7,20,7,34,0.08,2,Rain-Thunderstorm,209
2012-8-11,87,78,69,79,73,70,100,89,58,29.99,29.95,29.92,10,10,7,21,7,34,0.14,3,Rain-Thunderstorm,201
2012-8-12,86,78,69,79,75,70,100,93,70,30.03,29.98,29.95,10,10,3,12,2,,0.04,3,Rain-Thunderstorm,183
2012-8-13,91,81,71,79,74,66,100,84,46,30.06,30.01,29.97,10,8,0,13,2,16,0.00,3,Fog,226
2012-8-14,91,82,73,77,73,66,100,75,46,30.02,29.96,29.91,10,10,7,13,5,16,0.00,1,,227
2012-8-15,89,81,73,79,75,73,100,80,59,29.99,29.95,29.91,10,10,5,14,6,18,0.00,2,,239
2012-8-16,91,82,73,77,73,66,100,81,49,30.03,29.99,29.95,10,10,7,10,5,,0.00,1,,242
2012-8-17,89,78,68,77,72,68,100,86,59,30.02,29.94,29.86,10,10,7,16,4,23,0.00,2,Rain-Thunderstorm,220
2012-8-18,89,78,68,79,74,68,100,88,59,29.92,29.88,29.83,10,10,7,10,1,,0.00,2,Thunderstorm,210
2012-8-19,87,79,71,79,74,72,100,92,62,29.92,29.88,29.86,10,8,1,15,3,21,0.32,1,Rain-Thunderstorm,230
2012-8-20,86,78,71,77,73,70,100,92,62,29.99,29.91,29.86,10,10,2,13,4,24,0.19,3,Rain,244
2012-8-21,82,76,71,75,72,68,100,92,65,30.05,30.01,29.95,10,10,10,8,3,,0.00,2,Rain,182
2012-8-22,86,78,69,75,71,70,100,93,66,30.08,30.05,30.01,10,9,1,9,1,,0.35,4,Rain-Thunderstorm,179
2012-8-23,82,75,68,77,71,68,100,98,74,30.12,30.08,30.05,10,6,0,12,2,18,0.45,7,Fog-Rain-Thunderstorm,360
2012-8-24,77,72,68,72,70,68,100,96,78,30.11,30.08,30.05,10,9,5,14,6,20,0.25,8,Rain-Thunderstorm,9
2012-8-25,82,73,64,68,66,64,100,83,54,30.14,30.10,30.07,10,10,7,10,3,,0.00,2,,349
2012-8-26,86,75,64,75,69,64,100,84,48,30.18,30.12,30.07,10,10,4,10,2,,0.00,0,,56
2012-8-27,86,78,71,79,76,72,100,93,70,30.10,30.06,30.02,10,10,7,15,4,20,0.00,2,Thunderstorm,91
2012-8-28,78,76,73,77,74,73,100,99,94,30.06,30.02,29.97,10,8,0,10,1,,3.11,5,Rain-Thunderstorm,157
2012-8-29,86,78,71,81,75,72,100,95,66,30.04,29.98,29.94,10,9,1,10,2,9,1.93,4,Rain-Thunderstorm,227
2012-8-30,80,76,71,79,74,72,100,98,89,30.17,30.10,29.99,10,10,7,7,2,,0.00,4,Rain,282
2012-8-31,87,78,69,79,74,70,100,91,70,30.25,30.19,30.14,10,7,0,9,1,,0.00,4,Fog,149